Location: Brabourne
(51.1333°N, 1.0000°E)
Time: 08:31:28
(UTC+00:00)

Cosmos 858 Rocket - Pass Details

Date: 20 June 2021
Orbit: 756 x 775 km, 74.1° (Epoch: 01 August)

Event Time Altitude Azimuth Distance (km) Brightness Sun altitude
Rises 01:02:06 0° 334° (NNW) 3,266 8.6 -14.1°
Reaches altitude 10° 01:04:30 10° 332° (NNW) 2,333 7.7 -14.0°
Maximum altitude 01:09:47 72° 249° (WSW) 815 4.5 -13.8°
Enters shadow 01:14:08 15° 167° (SSE) 1,974 6.1 -13.5°
